sat.trackr.live / text

‹ back to catalog

STARLINK-11312 [DTC]

NORAD 61689 · 2024-195C

PAYLOAD ACTIVE UNKNOWN

§ Identity

Operator
Country
US
Launch date
2024-10-30
Launch site
AFWTR
Launch vehicle
Mass (kg)
RCS (m²)

Purposes: comms

External: N2YO · Heavens-Above · Gunter

§ Orbital elements

Epoch: 2026-09-21T21:01:00.365952Z

Period
91.74 min
Inclination
53.1583°
Eccentricity
0.0000879
Mean motion
15.69706700 rev/d
Perigee alt
359.1 km
Apogee alt
360.3 km
Semi-major
6,737.9 km
B*
1.1290e-7
RAAN
139.3703°
Arg perigee
94.4863°
Mean anomaly
265.6255°
Rev number
10,984

§ Raw data

STARLINK-11312 [DTC]1 61689U 24195C   26264.87569868 -.00000575  00000+0  11290-6 0  99942 61689  53.1583 139.3703 0000879  94.4863 265.6255 15.69706700109845

JSON: /api/v1/satellites/61689 · /tle

For live sub-satellite position, see the globe view (requires WebGL).

§ Visibility from observer

Set your observer location to see the next 7 days of passes ≥ 10°. The values pass through the URL so the page stays shareable.

No JS? Fill the form by hand. The geolocation button needs JavaScript.